SCP
0 0 0 1 1 1 1 1 1 1 1 1 1 1 1 1 1 1 1 1 0 0 0 0 0 0 0 0 0 0 0 0 0 0 0 1 1 0 0 0 0 0 0
0 0 0 1 1 1 1 1 1 1 1 1 1 1 1 1 1 1 1 1 0 0 0 0 0 0 0 0 0 0 0 0 0 0 0 0 0 0 0 0 0 0 0
0 0 0 0 1 1 1 1 1 1 1 1 1 1 1 1 1 1 1 1 0 0 0 0 0 0 0 0 0 0 0 0 0 0 0 0 0 0 0 0 0 0 0
0 0 0 0 0 0 1 1 1 1 1 1 1 1 1 1 1 1 1 0 0 0 0 0 0 0 1 1 0 0 0 0 0 0 0 0 0 0 0 0 0 0 0
0 0 0 0 0 0 0 0 1 1 1 1 0 0 0 0 0 0 0 0 0 1 1 1 1 1 1 1 1 1 1 1 1 0 1 1 1 1 1 1 1 1 0
0 0 0 0 1 1 1 1 1 1 1 1 0 0 0 0 0 0 0 0 0 1 1 1 1 1 1 1 1 1 1 1 1 1 1 1 1 1 1 1 1 1 1
0 0 0 1 1 1 1 1 1 1 1 1 1 0 0 0 0 0 0 0 0 1 1 1 1 1 1 1 1 1 1 1 1 0 1 1 1 1 1 1 1 1 1
0 0 0 1 1 1 1 1 1 1 1 1 1 1 0 0 0 0 0 0 0 1 1 1 1 1 1 1 1 1 1 0 0 0 0 0 1 1 1 1 1 1 1
0 0 0 1 1 1 1 1 1 1 1 1 1 1 1 0 0 0 0 0 0 1 1 1 1 0 0 0 1 0 0 0 0 0 0 0 0 1 1 1 1 1 1
0 0 0 1 1 1 1 1 1 1 1 1 1 1 1 1 0 0 0 0 1 1 1 1 0 0 0 0 0 0 0 0 0 0 0 0 0 0 0 1 1 0 0
1 1 1 1 0 0 0 1 1 1 1 1 1 1 1 0 0 0 0 0 1 1 1 0 0 0 0 0 0 0 0 0 0 0 0 0 0 0 0 1 1 1 0
1 1 1 0 0 0 0 0 0 0 0 0 0 0 0 0 0 0 0 0 0 0 0 0 0 0 0 0 0 0 0 0 0 0 0 0 0 0 1 1 1 1 1
1 1 1 0 0 0 0 0 0 0 0 0 0 0 0 0 0 0 0 0 0 0 0 0 0 0 0 0 0 0 0 0 0 0 0 0 1 1 1 2 2 2 2
1 1 0 0 0 0 0 0 0 0 0 0 0 0 0 0 0 0 0 0 0 0 0 0 0 0 0 0 0 0 0 0 0 0 0 1 2 2 2 3 3 2 2
1 0 0 0 0 0 0 0 0 0 0 0 0 0 0 0 0 0 0 0 0 0 0 0 0 0 0 0 0 0 0 0 0 0 0 1 2 2 3 3 3 3 3
0 0 0 0 0 0 0 0 0 0 0 0 0 0 0 0 0 0 0 0 0 0 0 0 0 0 0 0 0 0 0 0 0 0 0 0 1 1 2 3 3 2 2
0 0 0 0 0 0 0 0 0 0 0 0 0 0 0 0 0 0 0 0 0 0 0 0 0 0 0 0 0 0 0 0 0 0 0 0 0 1 1 1 2 2 2
0 0 1 1 0 0 0 0 0 0 0 0 0 0 0 0 0 0 0 0 0 0 0 0 0 0 0 0 0 0 0 0 0 0 0 0 0 0 0 0 1 1 1
0 0 1 0 0 0 0 0 0 0 0 0 0 0 0 0 0 0 0 0 0 0 0 0 0 0 0 0 0 0 0 0 0 0 0 0 0 0 0 0 0 0 1
0 1 1 0 0 0 0 0 0 0 0 0 0 0 0 0 0 0 0 0 0 0 0 0 0 0 0 0 0 0 0 0 0 0 0 0 0 0 0 0 0 0 0
0 0 0 0 0 0 0 0 0 0 0 0 0 0 0 0 0 0 0 0 0 0 0 0 0 0 0 0 0 0 0 0 0 0 0 0 0 0 0 0 0 0 0
0 0 0 0 0 0 0 0 0 0 0 0 0 0 0 0 0 0 0 0 0 0 0 0 0 0 0 0 0 0 0 0 0 0 0 0 0 0 0 0 0 0 0
0 0 0 0 0 0 0 0 0 0 0 0 0 0 0 0 0 0 0 0 0 0 0 0 0 0 0 0 0 0 0 0 0 0 0 0 0 0 0 0 0 0 0
0 0 0 0 0 0 0 0 0 0 0 0 0 0 0 0 0 0 0 0 0 0 0 0 0 0 0 0 0 0 0 0 0 0 0 0 0 0 0 0 0 0 0
0 0 0 0 0 0 0 0 0 0 0 0 0 0 0 0 0 0 0 0 0 0 0 0 0 0 0 0 0 0 0 0 0 0 0 0 0 0 0 0 0 0 0
0 0 0 0 0 0 0 0 0 0 0 0 0 0 0 0 0 0 0 0 0 0 0 0 0 0 0 0 0 0 0 0 0 0 0 0 0 0 0 0 0 0 0
Wind_Speed
4 5 8 9 10 11 13 14 14 14 13 12 12 11 11 10 9 9 8 8 7 6 6 6 5 4 4 5 5 6 6 5 4 2 4 5 6 7 7 7 7 5 8
6 5 9 9 10 11 12 13 13 13 12 11 11 10 10 9 9 8 8 7 6 6 6 4 4 4 5 5 6 6 6 5 4 3 1 4 6 7 6 6 7 4 7
7 5 7 9 10 11 11 11 12 12 12 11 10 10 9 8 8 8 8 7 7 7 6 5 4 3 4 4 4 5 5 5 4 3 3 1 3 6 6 4 6 6 7
6 5 5 10 10 11 11 11 11 12 11 10 10 9 8 8 7 7 8 7 7 7 6 5 3 2 2 3 4 5 5 6 6 4 3 2 2 5 5 3 3 6 8
5 4 6 11 11 11 11 12 12 11 11 10 9 8 7 6 6 5 6 6 6 5 5 4 2 2 3 4 5 6 6 7 6 6 4 4 2 1 2 1 1 4 8
5 4 6 10 10 10 11 12 12 12 11 9 8 7 5 5 4 3 4 4 4 3 2 2 2 4 5 5 6 7 7 6 4 3 3 4 3 3 3 1 0 2 6
5 5 6 9 9 10 11 11 11 11 10 8 6 6 4 3 2 2 2 2 1 1 1 3 5 5 6 6 7 8 8 6 3 3 3 3 2 3 3 3 3 2 2
5 5 6 10 11 11 11 11 10 9 9 8 6 5 4 3 1 1 1 1 1 1 2 4 4 4 5 6 7 8 9 6 3 2 2 1 0 1 1 1 2 3 3
5 5 5 5 8 11 11 10 10 9 8 8 7 6 4 2 1 1 1 1 1 1 2 2 2 3 3 5 6 7 8 7 3 1 1 1 3 4 3 2 1 1 2
4 5 5 4 4 4 5 9 10 9 8 7 7 6 4 3 1 1 1 1 1 1 0 1 2 2 4 5 7 7 6 6 3 2 1 2 5 5 5 4 4 4 3
6 5 4 4 4 4 4 6 7 8 7 6 4 4 3 1 1 2 1 2 3 2 1 2 2 3 4 6 7 7 5 2 2 2 2 5 7 6 6 6 6 6 5
9 6 4 5 5 4 4 3 3 2 3 2 1 1 2 2 2 3 4 4 3 2 3 4 4 4 4 3 4 6 2 3 2 2 3 8 9 9 9 9 8 8 8
7 7 6 5 4 4 3 3 2 2 2 2 2 3 2 2 2 3 2 4 4 5 3 4 4 2 2 2 2 3 3 3 2 3 4 9 9 9 10 9 8 8 8
6 6 5 4 3 3 3 3 2 2 2 2 2 2 2 1 1 2 2 2 2 1 2 2 2 3 3 3 3 3 3 2 2 2 3 9 9 9 10 10 9 9 8
5 4 4 4 4 3 3 2 2 2 2 2 2 1 1 0 1 1 1 1 2 1 2 2 2 3 4 4 3 2 2 3 3 3 3 10 12 12 12 12 11 11 10
4 3 3 4 4 4 3 2 2 3 3 3 3 4 3 2 1 1 1 1 2 1 1 1 1 2 2 2 3 3 3 2 2 3 4 6 11 13 13 13 12 12 12
4 3 4 5 5 5 5 4 3 4 4 4 4 5 5 4 3 3 3 3 3 2 2 2 2 1 2 2 3 3 2 2 3 4 4 4 5 10 13 13 13 13 12
5 5 5 6 7 6 6 6 5 5 6 5 4 5 6 6 5 4 3 3 3 3 3 3 3 2 3 3 2 2 2 2 4 4 4 4 4 4 7 11 12 12 12
6 7 7 7 8 8 8 7 7 6 6 5 5 5 5 6 6 4 4 3 4 4 4 3 3 3 3 4 3 2 2 2 1 3 3 3 3 3 2 6 10 11 12
7 7 8 8 8 8 7 7 7 7 6 5 5 6 6 6 7 5 5 5 5 4 4 4 4 4 3 3 4 4 3 2 1 1 1 1 2 2 2 3 3 6 11
7 8 7 7 6 5 4 4 5 4 4 5 6 7 7 7 7 7 5 5 5 5 5 4 3 4 4 3 3 4 3 3 3 2 1 2 3 3 4 5 4 5 6
8 8 7 6 5 4 4 4 4 5 4 4 4 7 8 7 7 6 6 5 4 4 5 5 4 2 2 3 2 3 4 3 2 2 3 4 4 4 6 8 8 8 8
8 7 7 7 7 7 6 6 5 5 4 4 5 4 6 7 7 6 5 4 4 4 3 2 2 2 2 2 1 2 3 4 4 3 4 4 4 5 7 9 10 10 10
9 9 9 9 9 8 6 7 7 5 4 3 2 3 5 6 6 6 5 4 4 3 2 3 2 2 2 2 2 2 3 3 5 5 3 4 7 8 9 9 10 11 11
10 10 10 11 10 9 8 8 8 7 5 3 3 5 4 4 5 5 4 4 3 2 2 3 3 2 1 2 2 2 3 3 4 5 7 6 7 8 9 9 9 9 10
10 10 10 11 10 8 9 8 8 8 6 5 4 3 3 2 3 4 3 3 2 1 2 2 2 2 2 2 2 2 2 3 4 5 8 10 9 9 10 9 9 8 8
Wind_Direction
162 164 167 164 159 138 127 126 126 125 122 118 113 108 105 104 104 106 109 114 121 125 124 120 113 102 86 72 62 56 50 45 40 100 134 137 146 153 160 158 151 148 157
151 156 160 160 156 142 132 128 126 126 126 126 122 117 112 110 109 108 108 110 115 121 119 107 90 70 56 46 42 41 38 31 20 353 228 165 168 172 183 190 172 170 174
139 146 153 158 156 149 139 133 130 129 130 130 130 128 124 122 121 124 126 128 130 131 130 125 114 90 64 48 34 23 15 11 8 345 313 298 201 187 193 199 179 186 189
134 132 147 159 157 153 147 139 134 132 132 133 134 137 139 140 140 145 149 150 147 144 143 145 141 111 62 28 13 10 6 3 3 12 9 312 244 194 186 186 196 205 204
124 131 162 160 158 155 150 142 138 136 136 137 139 141 146 151 157 163 165 165 162 158 158 159 142 74 36 21 21 18 11 6 24 50 48 37 21 161 143 138 235 222 218
133 145 165 158 155 152 149 146 145 144 144 144 144 145 149 157 166 177 182 180 176 178 182 147 86 62 51 40 26 14 5 4 44 71 68 53 38 45 75 84 231 231 217
143 150 159 155 152 151 153 153 152 149 145 142 142 143 142 147 164 190 201 187 174 171 106 82 69 55 40 25 14 6 358 360 63 87 92 77 40 35 49 37 10 326 244
151 155 159 161 156 153 157 157 152 147 142 139 137 135 135 138 160 224 222 196 168 137 97 76 62 46 33 21 14 9 5 12 57 71 94 110 255 317 23 31 6 0 2
158 160 162 161 157 157 155 151 146 143 141 140 140 140 142 141 141 158 169 196 179 133 108 77 50 31 31 24 19 16 17 36 58 40 10 344 307 311 309 311 300 308 334
162 167 161 145 136 135 146 155 153 151 151 152 155 157 160 163 165 173 146 244 229 208 198 43 8 4 7 9 8 8 26 44 34 6 348 311 298 292 292 287 275 260 250
180 175 149 139 137 136 143 163 158 161 163 164 169 183 167 84 26 7 320 273 260 250 284 319 323 329 344 358 355 359 23 14 348 318 298 291 297 292 289 283 274 268 260
189 176 155 158 154 151 154 131 120 121 134 127 98 68 61 38 4 347 333 322 320 328 333 330 325 333 353 357 342 353 352 330 314 294 286 294 297 296 292 285 272 269 265
180 172 176 172 162 153 133 117 110 105 110 107 93 76 60 39 10 9 8 5 9 6 4 354 354 353 332 315 323 328 323 323 311 299 296 304 303 303 303 298 283 273 268
167 175 176 162 146 136 113 117 123 121 116 107 90 83 81 43 8 10 7 354 0 352 324 316 312 316 310 300 298 307 321 327 319 311 317 335 338 334 330 325 316 301 291
171 168 163 140 130 122 117 119 124 121 112 103 81 64 87 121 315 345 341 327 313 299 284 292 306 321 329 332 331 333 343 345 341 348 350 360 2 359 353 345 337 328 318
160 158 134 122 118 117 115 115 106 95 88 77 62 45 45 55 58 56 35 5 350 343 321 281 309 345 348 346 350 355 356 0 10 25 26 17 16 12 7 1 352 342 329
130 131 123 118 109 109 107 101 90 87 88 80 69 59 62 67 70 68 52 33 15 21 43 60 53 62 31 9 358 358 18 27 36 43 44 40 27 19 10 1 355 348 338
114 115 118 117 109 106 102 96 91 89 91 86 80 72 70 73 78 76 69 49 35 45 48 54 40 42 27 6 341 346 12 19 40 50 52 41 27 15 3 358 352 348 342
113 113 108 111 113 109 102 96 90 86 83 82 78 74 73 77 84 87 75 54 44 48 39 38 41 40 23 357 331 351 356 346 28 59 51 28 6 349 345 346 344 337 332
98 103 107 109 113 113 107 99 90 76 67 64 65 65 67 67 67 69 63 50 51 54 39 34 47 46 31 350 336 334 305 276 220 135 46 333 299 294 295 294 309 312 316
87 96 104 114 118 119 112 106 97 82 66 58 56 54 55 57 58 58 57 49 49 56 45 32 35 42 22 357 356 327 300 268 239 201 266 282 276 272 273 284 284 289 291
97 94 92 95 93 85 88 92 96 101 80 65 54 47 44 49 50 60 58 55 50 56 46 33 27 17 354 9 360 314 312 303 274 263 289 271 280 285 294 301 297 290 288
92 92 92 81 75 70 82 95 93 80 69 49 42 40 35 48 56 59 62 65 58 62 56 32 26 17 313 308 284 266 285 284 303 278 276 281 295 296 300 304 300 296 293
96 91 88 82 74 66 69 84 87 88 86 70 67 60 45 45 49 52 53 55 54 46 32 355 18 345 316 307 310 294 269 277 291 300 286 286 294 296 297 299 300 298 294
100 95 89 83 75 70 72 81 88 87 89 84 72 66 53 35 30 30 34 33 32 23 12 1 356 350 336 308 306 308 303 293 260 281 295 294 293 289 292 291 290 289 290
99 92 89 85 75 73 77 78 90 97 96 86 70 60 37 11 3 7 13 18 12 360 346 342 343 341 333 310 294 279 274 282 292 287 292 299 296 293 292 286 283 282 284